GFSNE_2pvu_pres_033.txt.gz
Presure
233 238 218 233 225 222 223 209 209 203 208 200 211 213 224 209 216 227 229 238 240 235 238 245 229 220 242 251 229 218 219 227 226 225 220 222 226 229
224 222 233 210 219 220 214 208 210 208 197 193 216 221 208 209 235 236 199 240 236 235 230 222 213 239 240 226 238 225 223 214 227 233 206 207 210 212
239 236 219 218 228 225 215 213 212 210 197 176 206 198 191 228 231 242 252 226 239 232 228 225 244 240 252 243 210 199 196 199 199 225 218 205 226 229
234 228 219 230 224 207 222 218 216 216 152 162 212 229 234 244 236 249 240 229 225 226 234 232 234 231 201 202 248 236 230 234 242 247 232 226 243 262
229 223 222 225 224 227 214 165 186 152 194 232 217 243 245 247 247 226 228 218 230 247 204 207 254 254 251 234 224 243 232 233 260 264 285 447 422 410
222 225 188 219 220 163 193 163 213 183 160 217 232 228 241 234 213 218 226 248 193 198 247 252 234 229 233 242 231 218 259 263 278 355 408 433 426 431
213 235 221 219 201 185 219 216 180 225 226 236 234 245 233 216 223 226 222 222 245 251 220 227 232 240 255 254 251 266 277 313 416 425 425 430 427 440
260 259 275 162 168 172 169 238 236 227 235 225 244 213 218 235 224 202 248 244 210 229 230 233 243 246 243 257 267 290 404 409 381 362 355 347 345 479
223 271 260 247 185 197 214 190 229 237 238 210 235 235 211 231 240 251 215 222 231 233 236 242 238 243 251 271 355 385 396 371 351 339 332 327 330 336
173 234 221 183 236 202 234 237 237 225 218 224 228 214 244 251 231 217 226 226 234 248 241 243 247 256 309 364 375 387 366 345 335 326 321 312 312 320
228 227 239 217 225 233 223 208 225 224 230 216 239 247 239 221 221 227 231 241 237 243 253 251 330 369 355 359 375 357 342 329 310 313 311 374 381 309
239 243 238 218 215 219 223 222 215 223 232 239 212 161 215 227 229 235 240 240 250 251 375 381 363 356 350 359 347 334 233 323 309 352 371 375 365 357
228 224 218 219 222 225 223 225 235 239 240 165 215 219 227 235 239 242 249 253 331 380 379 365 339 345 373 346 321 224 313 322 357 376 372 383 332 353
206 206 209 214 221 233 239 243 228 158 206 219 227 236 225 241 246 257 384 389 376 363 350 332 342 340 352 322 295 306 297 332 357 368 390 329 377 347
225 236 239 240 230 222 224 157 218 226 236 136 256 240 248 260 407 385 370 354 339 327 373 354 348 347 324 312 302 291 338 353 367 370 393 381 377 369
222 222 221 223 228 157 169 221 261 258 232 239 269 354 346 327 313 311 352 361 360 360 351 413 352 323 312 307 304 349 375 383 364 381 386 394 393 324
243 249 207 151 167 247 247 245 241 237 274 355 336 324 318 340 368 359 358 344 345 334 376 348 323 311 307 347 370 356 368 383 391 381 384 383 399 401
228 148 220 186 239 237 238 246 238 331 343 330 319 308 349 354 352 292 373 352 322 374 345 318 304 304 337 363 306 324 313 317 323 314 318 319 321 324
145 153 232 244 245 241 385 363 350 336 325 310 313 343 340 378 265 248 320 332 369 344 324 305 308 341 355 358 321 301 315 318 313 319 316 321 317 316
240 240 242 302 334 389 365 344 333 321 308 328 327 320 338 383 250 237 330 348 351 319 312 311 342 365 312 299 307 320 285 291 295 288 298 315 306 311
304 296 290 329 382 370 344 329 322 313 320 321 313 306 330 337 237 305 323 357 321 305 300 332 349 309 301 308 299 293 307 310 316 299 293 322 326 324
295 279 326 364 377 355 331 321 315 307 318 316 308 299 291 340 315 305 317 344 310 302 330 344 304 302 308 286 285 297 292 308 287 278 279 296 288 299
277 303 366 383 363 345 326 317 310 302 302 317 311 299 283 335 312 306 331 322 295 329 341 306 310 301 288 298 302 295 286 277 280 288 287 287 288 282

GFSNE_2pvu_pres_036.txt.gz
Presure
218 217 217 220 215 219 218 220 221 222 225 224 234 210 220 221 216 217 211 217 215 220 224 226 236 241 250 243 225 218 230 231 209 229 242 248 222 224
220 218 215 217 223 226 229 230 224 234 221 222 227 211 204 218 191 244 208 214 184 186 229 257 239 252 237 235 221 222 225 232 247 237 234 223 221 213
234 227 217 233 223 232 232 222 226 232 215 251 228 213 220 201 229 215 213 219 209 241 244 254 237 221 217 219 227 230 242 203 200 215 261 246 247 243
249 240 241 245 239 238 230 235 235 222 185 208 218 226 227 181 155 217 159 167 230 236 239 234 240 235 227 229 222 197 229 255 255 224 220 221 225 228
248 235 224 221 216 214 221 234 236 217 234 222 200 185 163 214 195 197 202 210 238 235 232 219 214 235 244 233 248 256 232 218 237 254 239 244 249 239
237 175 237 230 229 187 222 191 215 214 194 180 162 213 229 196 231 217 232 236 209 246 228 236 237 250 258 245 215 231 247 241 250 249 251 266 277 309
124 238 236 129 165 217 221 229 236 229 208 233 238 196 223 263 241 220 221 247 250 202 230 245 253 233 217 236 235 247 249 253 256 263 268 291 394 401
254 252 237 138 129 227 148 230 161 257 249 273 252 187 207 247 255 252 234 243 254 241 232 245 220 231 176 240 250 259 260 266 266 284 390 388 385 369
250 254 260 268 246 188 192 177 161 255 222 255 253 252 248 241 222 228 235 240 231 242 200 208 231 231 243 250 255 262 268 278 391 379 375 369 354 344
247 250 274 260 251 244 243 229 190 254 250 222 240 230 240 237 227 222 230 243 245 231 233 227 240 245 247 253 268 277 394 381 375 358 367 349 336 330
256 260 202 246 250 233 230 259 230 223 219 218 249 227 220 237 234 239 245 224 232 241 242 241 251 251 259 275 386 383 380 363 372 364 345 336 329 310
278 273 262 261 255 219 248 246 245 244 240 219 220 231 237 248 248 235 211 246 246 263 243 251 264 356 382 367 364 357 364 369 362 346 334 324 311 351
225 223 221 219 218 219 206 220 227 230 237 241 235 223 212 238 249 253 262 238 247 257 267 350 331 320 306 315 355 362 361 355 333 325 318 324 350 383
221 221 227 228 229 229 227 228 226 223 199 235 242 201 259 271 258 249 249 256 321 346 334 321 345 369 367 355 340 357 351 326 317 308 353 383 400 396
223 219 219 223 226 232 238 206 245 257 258 165 240 250 260 241 245 352 351 341 337 331 382 373 374 359 348 336 353 332 317 302 327 393 370 360 364 409
217 218 219 219 219 215 179 236 228 173 229 248 257 275 373 360 344 337 329 329 357 366 365 260 327 337 353 340 326 308 306 376 328 331 317 324 314 336
220 222 224 226 226 231 234 195 243 255 326 392 373 358 348 337 328 324 344 351 382 370 269 243 364 351 331 322 304 367 365 317 314 319 316 319 329 320
226 226 235 205 225 153 283 292 296 363 387 368 349 339 327 320 320 323 315 394 351 310 236 333 356 324 314 329 390 311 305 306 312 303 306 310 311 307
232 234 238 236 152 288 283 334 386 378 363 339 332 322 312 313 317 309 304 302 330 275 325 374 324 304 330 346 332 308 305 298 291 301 303 305 313 325
179 236 188 328 275 284 321 399 375 362 342 328 323 312 306 314 315 306 299 291 325 312 328 347 304 345 348 305 306 319 292 305 299 294 285 283 280 293
230 190 328 253 276 294 379 384 365 353 337 326 318 309 300 298 316 314 302 286 326 308 343 308 337 323 300 303 295 293 313 302 287 275 270 268 281 277
244 328 252 271 288 375 353 334 365 351 335 323 318 313 292 296 305 313 310 312 330 312 326 316 319 303 306 287 297 281 276 274 279 271 267 272 264 272
327 272 265 281 349 363 338 324 314 351 339 331 319 299 299 299 319 354 354 338 326 328 299 337 304 306 295 297 271 269 261 263 264 261 275 284 282 278

GFSNE_2pvu_pres_039.txt.gz
Presure
240 236 234 227 226 224 220 217 150 213 210 216 220 212 228 233 228 224 222 225 225 226 237 228 214 233 221 226 226 228 242 227 250 251 233 233 229 224
264 251 244 230 229 224 222 222 238 230 221 158 233 182 198 210 229 230 224 231 222 227 204 224 225 205 216 179 178 221 233 241 230 230 225 216 217 223
255 253 256 255 245 237 219 207 198 188 200 211 213 212 206 227 229 228 206 225 226 220 211 229 193 204 200 175 206 247 242 223 218 238 227 234 241 218
280 243 249 246 243 250 236 233 219 209 212 220 221 189 147 231 183 237 218 226 216 231 230 153 227 230 242 241 252 240 251 250 229 233 204 246 227 244
285 276 285 260 246 238 239 221 225 230 229 225 154 188 216 161 217 226 224 225 221 201 207 218 239 221 241 257 265 264 239 230 229 214 239 241 208 207
285 293 257 277 264 259 172 234 223 123 177 131 228 223 210 190 232 227 230 235 168 243 239 261 247 261 268 253 222 227 238 243 247 241 218 225 231 247
322 303 290 288 271 258 256 226 201 229 224 225 235 234 228 232 179 240 234 255 249 245 262 267 268 265 231 238 236 240 250 235 233 225 233 250 250 257
320 313 308 297 258 255 262 254 243 239 238 235 233 233 234 229 179 255 263 265 261 259 246 233 235 228 234 241 251 227 236 248 238 254 243 256 264 273
316 309 299 295 268 250 225 172 242 244 259 260 196 254 263 254 259 251 239 251 223 224 226 225 234 241 244 257 250 247 240 249 244 254 264 271 286 392
297 302 288 279 268 258 248 249 250 244 254 248 232 234 256 259 248 251 234 230 232 235 245 246 250 252 249 256 261 246 245 256 266 281 317 362 334 360
267 262 257 254 253 254 254 256 215 234 231 264 232 228 226 225 215 224 199 240 236 251 251 255 258 251 237 249 248 261 278 353 355 351 386 388 371 379
231 226 228 229 228 229 228 229 228 223 222 225 223 233 238 236 239 242 250 256 257 249 247 249 254 251 252 302 364 359 386 393 392 383 366 360 367 344
229 229 230 230 229 228 227 227 228 228 231 234 236 235 241 244 243 241 236 243 251 257 263 305 367 364 357 343 354 375 380 380 363 344 369 351 332 317
225 223 222 219 220 219 217 218 222 225 229 232 234 228 229 237 212 242 253 295 385 371 366 357 345 337 344 350 354 358 315 317 365 348 334 320 345 340
227 229 226 225 225 223 225 226 226 229 231 237 238 233 285 298 298 296 376 369 355 347 339 331 325 344 371 363 317 278 248 337 339 325 307 368 327 330
221 220 221 224 226 228 229 229 235 232 233 317 274 281 295 387 381 365 354 345 333 329 322 316 314 398 319 317 330 241 342 319 308 349 337 314 331 314
222 223 225 226 226 230 242 228 251 325 278 268 271 371 385 369 353 342 335 325 318 316 318 311 297 325 318 324 284 333 312 309 366 318 320 306 329 323
216 223 217 217 235 243 242 303 277 266 286 343 375 369 365 356 340 331 321 312 306 319 315 311 293 320 317 343 328 303 373 330 311 316 305 309 296 291
222 216 217 234 241 163 223 273 268 305 354 370 341 347 355 342 334 325 316 303 293 311 318 315 284 317 347 310 313 373 315 306 305 304 313 281 281 283
199 220 201 193 161 297 274 271 316 400 355 351 328 313 353 343 334 329 317 294 298 304 319 329 335 315 323 302 332 329 325 295 300 300 286 283 286 280
166 218 229 256 252 275 265 294 359 333 334 325 340 324 310 304 319 314 302 302 304 331 355 350 341 334 314 342 303 302 308 302 280 277 278 271 265 270
231 239 240 243 285 259 282 350 330 320 315 348 335 315 332 322 313 307 306 306 317 347 346 355 323 327 340 300 300 295 282 280 270 264 265 266 281 279
238 228 264 302 268 272 322 331 316 352 354 352 353 348 320 304 335 327 263 319 233 327 361 345 329 334 309 311 304 279 280 265 261 272 267 278 280 278

GFSNE_2pvu_pres_042.txt.gz
Presure
266 270 268 268 268 259 256 252 246 240 233 232 234 214 203 217 202 228 173 218 195 201 215 229 221 235 228 234 233 226 229 233 226 230 223 194 204 163
273 278 283 265 255 251 248 252 244 242 244 230 211 204 224 211 199 188 206 216 213 206 218 206 222 226 195 225 227 213 224 229 229 221 207 210 242 161
246 246 257 258 253 250 242 227 258 242 239 231 225 226 225 193 195 202 203 224 213 201 215 215 217 220 220 222 224 220 230 224 234 236 196 202 242 251
373 342 248 239 243 230 228 242 277 241 248 226 224 210 205 199 158 208 214 213 213 154 158 177 211 228 234 228 232 237 230 185 171 228 248 275 268 256
396 358 337 312 291 246 238 240 259 265 262 238 225 223 221 123 222 134 134 166 218 211 226 233 225 233 237 231 233 170 255 262 258 277 269 270 240 233
358 350 345 331 315 293 283 270 269 274 267 263 261 239 233 228 239 226 227 219 223 223 229 220 232 230 241 239 262 265 274 253 248 239 240 232 228 239
362 342 339 332 326 303 290 272 269 297 261 265 258 260 244 233 229 226 224 228 230 228 230 195 243 249 250 270 239 244 237 228 231 235 240 244 250 253
326 333 346 318 322 303 292 300 270 266 284 265 263 250 247 252 254 249 245 236 239 244 238 253 267 269 275 217 232 248 243 255 253 250 249 261 251 262
280 294 318 322 311 307 304 292 295 279 274 273 257 250 259 252 242 241 250 261 277 286 246 264 247 248 247 248 252 261 245 250 251 254 252 253 257 244
260 262 254 271 265 280 271 262 267 265 271 249 247 246 247 248 245 243 236 236 241 243 243 247 246 250 247 247 244 245 252 251 255 256 262 264 288 350
243 243 231 229 245 248 244 243 231 233 231 230 228 229 231 232 238 240 238 238 239 242 242 243 239 242 218 253 263 262 270 271 300 315 386 376 397 400
235 234 234 234 232 230 230 230 228 228 228 228 229 229 231 234 235 237 238 242 241 238 239 235 257 256 259 268 284 319 310 375 368 367 368 373 381 366
230 232 233 231 230 230 230 229 229 228 230 230 231 233 235 234 226 227 221 233 248 259 262 284 289 306 296 313 354 361 358 356 355 376 391 345 340 343
222 227 228 223 224 224 223 225 221 215 225 228 232 237 231 232 213 258 293 232 302 295 285 345 348 356 349 345 332 331 328 376 388 341 336 375 260 294
218 221 218 218 218 217 220 214 211 226 226 234 246 252 314 284 291 276 273 277 377 375 364 355 343 334 333 323 316 314 306 333 336 334 362 246 325 361
213 213 213 216 217 220 221 225 225 227 246 247 304 277 272 270 369 394 391 348 347 358 345 336 325 318 313 308 309 303 327 320 322 350 331 318 384 331
212 208 205 215 218 213 226 230 233 253 213 300 280 271 355 394 345 337 340 320 359 344 334 329 313 304 313 315 312 300 321 323 354 315 309 361 317 324
210 220 225 226 225 218 229 251 261 256 305 280 265 362 337 323 320 331 334 318 333 344 334 325 312 297 301 306 321 290 320 352 308 332 360 310 319 311
246 242 219 215 217 158 250 254 259 307 283 262 354 329 316 364 361 350 326 332 316 324 336 326 307 310 310 357 341 335 332 313 359 337 315 311 315 289
201 225 225 176 155 251 261 270 327 292 262 355 344 312 326 357 349 354 348 340 324 325 309 311 314 321 345 347 341 318 327 346 303 301 315 306 284 276
226 230 245 250 248 169 267 256 303 270 282 356 338 301 307 337 357 352 349 346 339 328 328 321 237 330 348 372 325 318 319 310 309 300 286 277 273 274
240 250 247 248 254 265 253 327 278 271 365 352 327 300 314 343 362 366 361 352 347 321 350 318 308 344 349 378 311 312 331 306 299 279 269 265 273 275
241 248 247 249 263 263 302 287 267 338 350 331 323 310 337 361 375 381 406 370 360 307 359 357 351 343 365 320 335 313 318 289 283 267 269 267 282 273

GFSNE_2pvu_pres_045.txt.gz
Presure
285 278 278 274 276 276 257 263 251 245 243 230 262 251 235 252 198 206 236 222 204 219 206 205 189 151 213 210 199 217 217 229 223 218 227 224 230 226
269 270 278 274 277 271 259 258 247 245 253 220 218 262 251 243 228 209 215 176 223 220 193 205 199 218 204 201 211 214 206 215 228 220 237 201 234 233
272 322 410 397 347 342 304 308 280 250 225 232 217 213 253 221 224 230 229 232 215 211 205 215 218 226 199 211 213 212 168 224 223 223 220 163 229 224
264 277 380 380 361 183 382 340 315 290 289 263 259 234 206 197 202 221 221 235 220 214 212 205 229 225 215 159 216 220 213 221 226 219 225 239 219 234
248 236 371 372 372 208 353 342 317 298 278 273 262 255 230 249 227 231 224 235 239 232 126 227 235 222 161 214 221 224 221 229 230 229 234 237 247 244
270 265 352 349 344 339 355 331 308 305 299 278 262 253 266 241 252 243 251 240 227 229 219 235 222 228 222 226 230 232 233 235 229 238 246 250 243 266
265 265 266 264 355 326 330 346 306 304 301 289 275 260 260 263 258 248 242 251 251 234 228 228 223 228 226 223 239 239 241 242 241 252 271 292 286 246
257 255 263 239 271 289 319 326 319 186 321 301 284 272 259 257 264 273 290 274 266 262 238 237 240 253 255 255 262 267 262 271 296 268 251 244 244 244
252 251 248 252 251 228 258 257 264 267 266 266 290 297 285 280 271 269 279 263 256 266 267 273 276 276 263 262 258 248 245 245 238 239 245 249 246 250
237 233 236 245 246 250 252 245 245 243 242 240 239 236 235 233 229 234 235 234 233 232 235 235 234 238 241 242 244 247 251 252 223 252 247 259 268 272
235 232 220 236 237 237 232 231 231 231 231 231 230 230 230 230 231 231 230 233 234 236 238 240 241 243 181 186 219 240 243 253 269 278 292 311 322 297
222 220 218 222 222 225 224 226 223 218 223 217 217 217 216 219 227 228 229 234 237 243 246 248 192 254 260 267 275 286 321 319 313 286 298 372 367 360
213 220 222 215 216 218 217 217 216 217 217 218 222 224 216 233 230 227 241 250 257 191 214 313 309 304 295 285 287 289 321 364 364 362 353 343 336 353
208 214 214 215 219 219 215 214 224 220 225 224 220 225 244 255 267 270 303 313 302 240 279 278 279 337 366 361 361 354 350 346 343 340 331 324 322 331
210 215 213 216 221 217 234 256 243 222 214 230 246 249 262 279 277 310 295 282 272 315 345 339 332 347 333 326 344 331 330 329 332 325 318 311 329 337
224 220 221 209 219 245 232 204 219 232 225 256 250 273 267 318 304 290 268 290 332 323 356 330 329 327 320 354 335 317 317 308 315 326 321 307 325 357
219 197 203 238 250 219 247 232 242 255 255 128 263 268 312 299 286 272 350 335 308 322 362 358 349 325 319 351 333 319 305 303 304 306 319 319 329 337
234 237 237 259 250 242 245 250 252 255 204 263 278 315 298 266 294 356 338 336 300 309 351 349 353 345 334 318 339 317 303 301 310 356 322 276 332 326
253 259 244 244 254 236 241 251 260 261 272 150 329 299 270 286 349 343 324 303 309 327 344 354 350 354 315 325 310 310 304 314 342 373 329 322 327 356
239 240 226 221 244 250 254 261 263 277 278 336 301 271 299 359 336 317 310 319 337 352 353 360 361 356 353 326 318 233 321 337 347 360 319 338 335 303
227 231 235 244 257 256 259 260 272 278 339 294 266 286 377 343 317 313 337 364 370 369 365 363 371 371 296 247 244 344 338 347 375 324 336 291 319 306
223 233 235 253 258 262 265 274 280 334 279 269 279 372 360 317 317 352 384 379 383 391 390 387 391 406 370 363 363 362 351 363 346 335 318 312 282 273
228 236 246 259 263 262 271 278 330 254 274 277 361 375 312 321 346 388 378 408 443 406 399 469 451 386 369 378 370 372 343 331 342 307 307 272 269 275

GFSNE_2pvu_pres_048.txt.gz
Presure
228 256 284 267 276 273 265 272 264 248 257 245 303 268 242 250 244 223 222 212 209 237 223 216 208 213 221 218 225 219 213 222 158 230 231 220 205 210
267 247 273 256 260 255 266 253 298 404 383 353 318 320 292 253 242 228 231 231 206 207 223 214 219 215 210 180 172 205 215 222 221 216 219 211 227 221
267 258 265 255 253 258 269 338 377 378 370 354 347 307 291 280 260 229 198 217 202 195 201 224 225 196 214 212 213 208 213 215 228 218 213 159 218 229
239 273 259 256 261 261 274 360 363 366 354 409 334 305 332 321 266 252 247 236 214 203 199 204 241 216 202 199 204 221 225 227 215 136 216 168 221 145
268 263 253 255 262 268 262 271 362 354 356 362 296 284 275 297 278 267 259 263 231 241 237 231 206 204 204 229 195 211 231 225 221 161 207 221 224 222
266 247 239 256 250 246 260 276 265 347 364 353 312 292 287 286 278 272 263 265 268 246 239 225 220 216 215 229 216 232 229 229 231 225 227 237 224 238
250 231 246 238 240 236 230 248 263 259 263 316 343 327 311 298 272 263 253 249 255 251 254 242 228 240 237 230 234 241 239 242 238 234 228 239 245 250
236 236 223 223 226 230 225 234 239 234 245 250 248 263 338 331 304 294 289 276 269 268 262 258 261 259 253 255 252 257 254 244 236 232 239 239 242 245
229 221 220 219 222 223 229 227 229 229 232 233 231 236 237 237 240 238 237 235 236 238 245 274 268 259 266 285 295 300 302 276 264 288 294 294 286 280
217 219 224 217 226 218 211 223 219 219 220 227 227 229 227 227 228 227 224 224 223 223 227 230 229 234 234 236 235 235 235 234 235 234 237 238 242 248
221 216 227 226 224 218 213 216 218 222 222 217 249 256 230 228 226 223 221 224 225 224 226 237 237 238 238 238 244 251 252 256 260 258 258 263 220 179
221 223 220 220 224 217 204 221 219 229 224 250 265 258 229 220 213 216 217 234 247 245 245 250 254 260 262 262 271 254 264 319 321 314 300 296 292 290
227 225 222 221 212 217 224 227 202 217 251 262 218 235 235 244 249 262 256 255 255 268 281 293 331 328 315 304 296 288 283 282 298 317 356 360 370 366
212 199 205 220 214 196 234 226 241 256 261 252 247 249 251 254 254 261 267 278 285 322 327 301 244 273 275 284 322 340 363 338 335 337 334 360 349 342
195 223 232 231 238 240 245 252 260 250 244 253 228 251 259 265 264 285 338 343 325 302 272 280 355 354 347 335 315 314 357 358 344 335 325 351 333 326
203 206 231 237 244 251 253 247 228 227 236 255 264 269 268 284 298 352 319 288 270 290 374 351 343 331 328 326 298 307 344 341 342 337 360 347 330 316
236 237 250 252 255 240 226 223 230 236 238 263 270 272 283 312 326 280 268 291 351 370 346 332 318 312 311 308 311 330 338 336 338 328 337 340 329 311
261 262 255 233 224 225 224 227 234 235 253 267 270 280 290 313 261 284 288 381 367 330 316 315 322 331 339 340 341 341 339 341 339 333 320 306 313 313
224 225 223 225 220 225 226 233 237 243 266 274 275 286 316 268 284 322 390 324 312 324 335 350 364 372 366 359 355 355 348 349 344 341 243 257 308 315
223 231 234 236 230 222 227 236 242 263 275 270 288 306 261 278 326 403 304 325 334 346 380 380 381 383 378 371 361 351 360 322 356 235 343 343 335 351
236 235 236 229 220 224 233 242 259 274 272 287 284 261 275 279 416 294 317 333 338 388 365 385 442 450 496 417 395 372 367 380 332 354 362 356 359 369
236 233 231 219 228 234 241 242 272 275 280 281 308 265 276 310 317 295 337 326 341 376 370 370 386 384 422 422 414 403 396 371 374 379 365 370 343 328
229 231 225 231 236 239 241 268 275 284 287 285 267 270 277 349 292 307 337 327 325 329 341 346 370 371 377 383 384 383 379 381 385 343 338 334 328 345

GFSNE_2pvu_pres_051.txt.gz
Presure
199 216 247 241 240 256 294 281 274 270 267 265 270 272 371 386 375 379 271 265 258 256 236 244 213 218 218 216 218 240 229 230 230 238 219 198 236 217
233 250 247 243 270 294 280 272 267 263 264 246 249 298 396 375 381 390 291 281 280 271 271 239 235 222 205 205 215 241 237 221 212 219 227 220 214 220
247 246 240 273 287 279 270 266 253 253 251 246 243 316 365 366 374 336 338 277 276 282 273 259 227 205 204 211 219 189 218 206 203 213 201 149 142 194
244 241 280 292 275 277 269 254 243 230 243 233 230 251 379 355 320 305 311 292 281 271 266 263 252 216 206 218 213 207 207 197 204 213 215 208 197 189
241 280 277 278 279 272 256 242 225 221 230 232 226 235 260 311 320 311 300 317 269 279 271 258 247 232 228 212 212 208 207 204 216 225 221 224 223 223
279 267 268 274 275 258 245 239 224 225 228 218 229 223 231 244 247 270 306 283 296 287 265 249 249 244 244 244 268 229 236 234 239 227 243 227 212 215
271 285 271 282 264 249 237 216 225 218 228 222 225 228 234 223 256 234 238 260 276 283 280 281 263 258 253 251 249 249 242 240 235 237 241 224 218 228
263 262 266 273 252 242 224 221 226 232 228 232 232 226 232 236 265 274 258 226 230 232 234 241 254 275 269 269 269 257 252 245 242 241 241 236 231 240
298 272 260 262 247 229 227 213 230 224 228 221 232 230 206 209 264 271 264 223 236 226 223 224 221 221 222 224 226 230 268 276 273 270 281 265 267 272
260 267 242 255 235 231 221 223 226 208 223 197 204 205 205 269 264 254 249 246 232 230 235 232 234 231 221 222 226 227 226 228 230 231 230 231 232 235
267 256 250 248 236 222 219 226 203 215 210 206 248 258 267 253 245 242 240 242 246 249 249 248 248 251 254 251 251 252 253 252 251 254 256 256 258 252
263 259 259 201 248 191 202 198 214 230 235 244 259 258 241 234 231 242 250 265 269 271 266 265 270 271 274 273 269 269 267 267 275 283 286 279 177 276
252 234 251 203 201 199 238 236 209 239 245 257 246 237 231 235 235 239 259 276 277 283 298 352 369 357 343 334 330 324 315 306 302 299 295 294 294 291
238 240 234 236 237 237 230 240 243 252 256 236 233 231 231 240 241 253 281 281 287 322 315 272 270 278 287 291 294 313 347 343 363 356 356 355 340 326
243 240 239 238 241 248 253 185 260 239 229 228 228 229 231 239 242 276 276 292 305 279 270 287 317 362 375 387 370 357 349 348 339 331 328 337 329 299
257 257 260 261 259 261 240 223 224 229 237 240 234 226 233 241 264 282 285 292 280 273 291 396 321 311 319 320 314 312 320 315 317 318 316 312 314 329
236 232 227 220 220 218 223 233 238 239 236 229 225 234 241 250 282 285 292 321 272 280 347 302 330 339 333 335 335 337 336 339 342 346 349 346 345 350
220 216 216 235 241 246 233 229 232 236 232 227 235 239 247 274 291 295 304 268 271 326 313 317 337 336 364 382 374 371 369 367 366 363 359 359 353 352
211 232 227 228 226 231 226 228 232 235 235 240 241 249 259 292 288 300 324 266 283 350 299 334 332 345 385 362 370 385 441 406 381 366 366 366 360 351
227 227 229 226 225 218 219 233 238 239 242 244 251 256 288 284 304 324 259 273 306 324 318 335 334 340 371 372 370 381 510 494 425 400 381 375 369 367
221 220 218 217 219 222 233 239 233 247 250 253 259 281 285 295 325 255 270 281 321 296 328 329 314 327 329 346 357 379 383 391 448 418 407 398 387 380
218 216 218 223 233 232 239 246 251 258 259 266 278 285 293 302 264 266 277 291 326 308 339 287 281 282 282 282 286 291 297 301 346 366 384 361 384 373
215 219 221 230 234 239 250 251 255 260 273 278 290 294 296 267 268 286 287 303 315 317 294 281 286 276 273 271 270 274 275 278 282 278 279 282 295 308

GFSNE_2pvu_pres_054.txt.gz
Presure
197 193 201 198 226 253 253 246 257 254 293 280 272 259 252 232 229 241 235 243 373 368 349 294 268 281 242 221 252 226 231 222 218 237 251 246 236 226
201 193 221 240 232 252 248 254 255 292 287 276 262 249 239 229 231 233 231 243 382 373 331 285 268 264 244 244 244 235 228 238 217 218 208 209 217 233
231 250 250 237 254 246 254 264 281 283 277 265 254 244 223 225 237 226 229 240 249 366 308 284 265 257 272 263 242 221 238 209 206 215 214 206 214 208
264 251 240 253 242 252 276 270 278 273 275 259 249 234 226 226 234 231 233 242 231 246 308 295 270 271 260 262 279 272 251 220 229 219 223 196 207 215
264 250 245 240 252 299 268 253 282 277 267 253 242 222 225 232 229 212 240 269 239 269 236 285 284 278 267 258 251 269 255 247 235 234 235 231 213 212
249 243 239 251 289 273 250 274 268 272 259 247 232 219 225 226 237 230 257 205 209 276 262 239 229 282 281 273 271 255 254 249 244 234 236 231 217 217
245 238 249 295 265 256 248 287 263 263 249 239 231 224 226 191 235 229 247 272 257 257 251 246 220 217 228 235 282 279 268 270 256 251 237 231 232 235
247 259 288 264 249 284 294 259 261 246 248 237 234 234 203 227 205 246 266 248 244 240 241 243 243 252 249 237 224 224 224 280 257 252 258 256 254 246
279 275 256 245 269 304 273 268 250 248 235 230 194 218 202 236 213 253 266 239 236 231 229 234 240 254 265 251 250 247 242 233 225 222 223 255 266 264
268 251 241 316 308 280 268 262 255 235 208 205 200 237 210 228 246 266 239 238 233 231 238 240 247 274 272 269 266 260 253 248 247 247 242 239 233 231
252 256 273 277 265 259 264 237 230 247 235 226 239 211 249 252 266 239 230 232 233 227 240 245 268 285 282 281 282 280 272 269 267 264 262 260 260 258
287 268 253 250 248 243 239 240 240 240 238 242 249 260 264 236 228 232 242 247 235 232 242 256 292 296 294 304 327 313 300 318 330 349 299 284 275 273
285 271 258 252 248 248 248 244 246 254 261 257 250 226 224 231 241 241 241 237 236 244 250 279 299 301 311 296 273 272 291 324 318 278 280 281 292 306
291 297 281 272 268 265 264 269 248 233 225 228 234 238 244 242 235 241 241 240 248 252 269 302 299 320 302 270 282 345 317 305 310 316 350 389 379 370
237 242 241 237 230 226 222 223 218 242 244 245 230 233 235 228 246 248 243 246 255 268 298 288 337 301 270 299 337 304 335 345 344 342 340 332 319 329
227 223 219 217 217 220 217 229 220 223 227 227 228 226 221 241 246 236 250 257 268 288 290 323 302 266 289 365 309 333 330 337 366 377 373 354 341 337
207 218 215 212 217 219 228 221 228 226 224 225 224 231 234 242 251 255 262 267 279 288 300 307 258 271 318 302 327 323 332 364 377 372 382 383 380 373
217 209 212 221 219 218 222 223 224 220 224 222 236 236 242 252 253 256 267 273 286 296 312 273 280 287 306 317 330 328 336 350 368 377 388 474 397 397
226 217 225 224 220 219 222 218 217 217 223 233 235 240 249 254 260 268 275 284 294 301 323 265 290 302 312 321 324 312 320 334 349 376 388 394 517 470
241 231 226 217 217 223 216 214 217 221 228 232 240 247 255 265 274 279 290 301 307 298 274 328 284 310 332 283 279 286 284 285 290 306 353 389 391 421
245 230 209 216 223 216 213 217 222 226 232 238 246 256 269 277 282 292 305 265 309 325 337 337 318 312 372 281 284 278 277 278 281 280 283 286 301 314
231 212 214 223 217 212 218 222 228 235 240 249 268 278 283 286 300 318 310 306 340 349 319 310 320 377 439 284 274 271 277 276 275 275 278 283 283 284
212 217 219 216 216 222 224 229 240 245 258 280 280 292 294 316 329 341 340 358 340 314 316 349 420 440 335 262 264 281 271 270 268 273 274 266 277 280

GFSNE_2pvu_pres_057.txt.gz
Presure
186 185 188 176 188 195 199 208 257 262 254 247 242 292 267 276 283 266 253 229 234 235 242 253 233 316 395 361 290 279 278 236 228 226 207 228 217 235
181 195 173 192 199 198 214 236 269 256 253 240 265 278 254 282 272 258 243 226 230 234 244 280 212 228 398 277 267 261 253 233 229 245 227 238 207 246
186 169 193 200 236 229 242 264 259 258 246 253 280 257 267 279 262 252 233 226 229 210 244 202 293 239 232 271 266 271 262 248 247 227 230 218 231 225
192 195 217 280 240 256 242 257 252 249 264 285 256 251 275 266 253 245 232 229 233 194 220 209 267 271 257 220 295 275 284 277 264 240 235 228 246 218
254 229 276 235 261 240 252 250 248 267 286 254 265 288 266 261 250 238 234 236 198 203 204 262 227 240 247 257 244 262 259 273 243 274 259 252 234 238
264 274 247 251 256 248 250 256 276 277 255 250 297 277 264 249 249 235 234 216 238 246 205 257 237 241 238 234 242 256 243 224 266 276 245 253 232 233
188 256 242 253 251 247 270 297 267 251 280 267 290 268 254 250 237 207 206 199 223 239 258 256 237 232 229 228 242 244 238 235 247 236 227 279 253 264
244 261 248 249 241 260 280 263 251 319 311 286 271 262 256 234 257 236 231 240 245 262 271 235 230 233 241 232 228 232 240 253 277 270 233 240 253 269
252 244 240 248 287 277 263 297 279 258 256 262 254 238 246 240 239 241 243 255 266 234 228 237 247 247 243 234 223 241 245 261 291 277 271 260 247 241
242 241 245 267 267 290 282 272 254 261 250 243 246 246 243 244 247 258 257 234 228 240 246 241 240 244 241 234 249 252 265 302 296 295 289 279 271 263
235 258 254 263 255 294 275 263 257 253 253 251 250 253 260 257 234 226 237 250 240 235 233 242 252 249 247 253 264 284 310 301 306 304 303 304 305 291
241 241 261 248 230 281 303 288 281 272 265 251 236 228 227 243 246 230 226 232 228 225 226 245 250 253 262 275 286 303 342 342 336 329 311 294 286 285
239 249 251 245 230 236 237 240 238 234 229 221 218 223 224 226 228 228 230 227 228 232 242 253 259 265 274 280 293 294 315 306 279 264 281 319 310 305
246 240 245 237 230 232 228 227 221 222 213 219 226 223 227 229 228 227 226 230 240 242 247 258 266 274 279 285 293 304 310 262 279 324 307 323 331 332
236 241 242 232 231 226 235 213 219 222 221 225 227 222 227 225 225 224 224 234 243 249 257 267 274 280 286 290 302 319 272 280 304 311 332 322 328 338
243 238 241 235 243 228 221 223 218 206 223 226 224 220 223 220 222 223 229 240 248 260 267 276 281 284 282 305 301 323 275 289 316 324 328 331 335 357
244 239 241 229 241 238 220 238 230 228 223 220 217 224 222 217 222 228 237 248 259 270 282 289 289 289 267 298 313 304 324 319 324 339 332 335 347 370
226 250 240 220 243 244 217 217 242 233 218 213 224 226 215 221 228 235 247 257 269 285 289 294 311 324 315 308 338 338 347 311 322 286 294 312 330 357
234 233 239 232 241 246 244 209 242 221 214 216 227 214 222 229 235 249 258 283 283 296 303 327 304 299 355 353 342 336 332 325 281 279 279 275 280 298
238 241 241 228 245 256 209 217 224 214 217 227 218 225 230 236 251 259 285 295 306 333 308 293 359 355 341 326 312 315 333 344 279 279 267 269 271 283
233 240 235 233 239 241 223 225 218 220 227 218 227 230 239 253 269 282 304 314 291 286 337 360 357 340 321 334 386 418 429 447 289 271 273 274 282 279
240 244 239 238 240 244 218 219 227 223 221 228 230 248 257 284 278 306 312 261 308 293 367 345 319 332 366 419 435 419 424 339 279 275 271 264 265 269
233 226 218 244 241 227 224 227 218 226 228 235 255 258 283 282 307 264 312 274 303 363 340 322 343 374 430 403 418 412 413 294 252 266 265 239 239 242

GFSNE_2pvu_pres_060.txt.gz
Presure
185 185 185 184 193 151 191 198 184 168 193 267 247 234 254 251 253 267 277 252 280 272 259 244 236 236 232 241 222 338 242 375 314 269 247 245 238 232
142 181 181 181 152 158 190 192 156 201 262 248 233 257 251 252 265 284 252 292 275 266 253 242 238 241 211 234 233 335 347 275 272 258 246 239 230 232
163 175 186 178 184 174 229 163 248 253 252 261 257 251 256 270 281 255 253 283 266 259 249 238 240 205 210 209 247 255 265 287 272 247 257 239 233 230
183 180 170 183 191 192 258 219 214 259 226 261 258 255 280 288 256 247 269 276 262 251 246 230 238 204 246 266 253 245 239 234 281 256 282 267 248 254
185 195 227 194 198 216 237 245 216 245 260 257 261 293 272 262 271 283 279 268 253 253 236 247 202 244 259 275 249 235 231 230 232 240 235 276 255 245
192 170 190 194 250 262 228 262 234 254 255 285 287 304 327 313 301 274 263 258 251 234 244 243 242 263 267 240 226 230 236 242 240 228 231 245 244 268
196 185 236 254 252 246 262 243 251 256 285 279 294 278 302 258 271 268 258 242 240 242 245 254 264 241 233 245 254 247 236 241 240 239 229 227 245 250
220 251 249 260 252 228 244 253 245 279 273 297 282 265 252 266 261 249 247 246 249 259 255 233 231 252 241 239 232 232 234 251 251 241 234 232 241 239
249 235 252 268 249 238 245 243 253 267 257 286 270 258 253 246 249 254 256 254 236 234 245 239 229 233 237 236 232 231 243 258 262 258 255 258 257 256
238 236 260 241 233 242 239 240 262 255 242 278 288 278 269 261 248 237 232 221 226 227 228 231 232 226 229 234 240 245 254 263 269 276 282 289 300 302
257 246 239 230 233 238 230 242 255 253 240 233 223 238 235 230 225 213 220 229 224 228 227 227 227 226 226 237 244 252 259 269 279 288 300 301 304 325
243 241 226 228 235 240 242 238 250 250 242 234 225 230 212 220 224 220 227 227 225 226 223 224 220 224 231 241 249 259 273 279 284 295 291 302 300 318
236 232 236 247 235 226 236 241 243 249 240 238 228 230 222 213 207 215 225 229 216 226 225 218 223 227 237 247 260 267 281 285 294 294 294 315 308 276
234 229 234 235 229 238 239 246 245 237 242 246 232 226 225 227 221 228 226 218 222 225 221 219 227 235 246 257 265 282 289 295 293 303 324 322 271 273
235 243 235 228 237 232 236 247 236 243 243 233 245 231 216 217 239 237 227 215 219 226 219 228 234 245 258 266 284 294 303 307 327 325 344 304 322 329
243 239 233 231 228 234 235 247 232 232 250 224 248 246 222 216 245 241 216 218 227 223 227 233 246 258 281 291 301 315 331 334 296 349 364 357 342 344
240 227 226 234 227 239 238 249 238 235 241 234 242 256 235 217 236 216 218 227 224 228 234 246 256 280 296 307 312 279 289 358 358 363 358 354 345 318
236 231 227 231 239 240 253 238 241 235 240 225 240 243 234 227 226 223 227 224 229 235 252 262 292 309 308 271 305 363 363 364 353 347 338 326 302 302
232 229 238 238 240 251 250 243 227 248 241 235 239 244 234 223 222 227 223 232 237 259 262 311 317 287 354 375 291 348 343 319 326 339 348 348 327 300
234 240 247 260 252 246 247 236 263 229 236 236 246 249 227 229 224 226 232 240 262 271 307 322 290 338 276 373 350 318 333 345 387 439 452 458 348 291
246 253 243 243 255 263 253 245 234 244 241 247 239 228 225 221 229 237 250 261 286 311 316 276 370 355 377 347 332 338 363 429 453 414 422 436 310 277
242 246 256 255 250 240 228 234 239 249 254 265 261 218 226 231 245 260 261 295 314 299 326 354 295 371 354 338 352 373 436 410 414 415 421 299 283 274
252 247 250 229 222 219 218 224 262 272 274 265 265 259 251 253 259 269 302 309 303 319 346 291 372 355 328 359 296 296 253 286 288 292 240 269 241 231

GFSNE_2pvu_pres_063.txt.gz
Presure
165 173 162 140 168 177 187 163 198 175 179 195 192 203 201 205 244 262 270 260 259 289 275 256 260 267 265 253 250 245 219 197 210 333 345 371 380 295
156 136 166 157 149 169 172 175 178 166 196 175 210 204 206 274 266 261 262 267 290 269 268 262 280 264 257 254 246 242 197 209 247 256 282 306 312 266
165 137 169 148 182 157 179 189 203 195 189 199 199 235 253 268 262 271 288 287 329 312 298 282 261 263 253 242 250 246 243 267 251 240 245 264 282 255
165 150 171 177 184 196 174 188 220 196 226 171 252 177 251 244 268 299 302 334 320 302 289 277 264 254 244 244 249 255 261 238 230 236 241 239 228 240
166 169 173 195 182 192 209 203 259 224 241 246 252 253 248 261 288 314 294 281 255 272 243 270 251 241 249 254 268 242 231 236 253 254 245 248 241 229
221 197 209 243 212 204 245 226 251 262 252 248 250 243 249 286 272 290 274 263 255 246 255 244 248 251 269 248 236 243 239 234 237 234 231 236 241 241
274 257 238 266 263 260 254 244 266 254 248 249 241 246 254 277 259 286 271 259 254 251 258 255 263 241 227 230 228 231 236 230 228 231 233 238 232 246
264 266 240 272 250 265 240 236 253 240 246 257 244 232 238 268 251 239 268 264 260 249 238 232 219 225 228 228 234 229 227 226 225 226 234 244 251 255
245 248 260 236 237 238 250 242 243 255 243 239 225 241 250 262 252 237 230 226 230 216 221 223 224 235 231 227 226 227 221 220 226 231 238 249 259 266
286 283 259 258 246 252 239 235 250 239 232 233 228 247 244 254 256 244 237 228 227 222 214 214 215 227 229 219 228 228 220 220 229 233 243 253 260 268
278 267 262 245 249 226 237 251 234 229 240 247 240 235 242 255 248 248 241 237 229 227 225 224 221 229 218 219 224 225 219 228 234 241 251 258 268 282
196 263 250 243 238 236 250 237 227 233 232 228 240 240 243 251 242 249 243 245 238 226 218 230 233 234 216 221 225 221 226 231 240 251 259 267 295 300
255 247 254 232 244 233 238 233 225 233 234 235 234 235 238 251 238 246 238 223 249 245 218 216 245 233 218 221 231 224 230 241 252 262 269 300 303 309
259 245 253 243 248 231 233 228 234 228 227 238 233 235 236 251 240 235 238 236 244 257 241 216 232 221 221 231 224 230 240 255 263 282 302 312 313 325
255 258 243 231 226 229 232 228 229 250 238 232 228 235 245 255 242 244 242 231 244 243 239 223 226 223 229 224 230 240 256 267 298 311 320 272 345 368
242 231 238 218 221 235 227 227 226 245 237 229 231 239 254 238 245 245 244 239 240 243 246 221 221 222 222 229 238 261 271 303 328 315 306 384 370 316
232 225 241 232 232 235 234 225 242 245 240 237 249 256 251 250 252 247 246 237 239 250 249 227 224 220 229 242 263 287 321 354 273 385 283 333 355 333
246 230 232 237 236 238 231 247 247 234 235 247 253 244 257 257 236 230 230 243 235 236 227 221 224 234 252 260 312 320 374 341 400 337 355 327 331 339
220 221 239 226 229 248 246 237 231 242 251 247 255 258 237 236 239 243 257 277 273 265 232 231 253 264 269 313 311 272 350 322 327 345 336 349 366 424
250 254 258 256 245 234 229 238 246 254 249 254 240 228 227 226 235 278 276 271 269 265 258 258 261 306 319 315 356 342 389 366 349 347 355 394 463 398
236 232 230 230 233 245 257 252 249 253 249 229 224 218 217 222 225 227 264 253 247 250 257 286 303 313 323 372 343 384 364 359 358 333 392 459 395 413
241 241 250 253 248 248 250 252 250 254 214 217 221 221 229 241 245 238 239 250 258 272 290 304 303 323 351 366 334 378 355 333 307 281 294 298 298 301
249 248 248 252 252 252 257 266 259 218 226 227 228 231 239 256 253 255 255 260 276 291 307 298 317 347 355 321 353 378 310 357 289 258 247 258 273 270

GFSNE_2pvu_pres_066.txt.gz
Presure
130 141 131 165 177 180 161 154 187 143 141 163 182 191 200 207 216 236 218 261 241 280 276 292 305 304 313 295 279 267 264 254 251 245 286 232 254 255
191 187 185 169 158 169 155 121 169 178 186 187 196 210 206 234 207 228 262 240 260 269 296 308 283 318 257 285 275 265 250 242 244 270 272 245 247 256
209 204 203 184 201 198 198 199 192 194 181 183 211 250 214 198 264 232 253 248 269 277 291 291 294 263 290 249 259 245 246 244 258 260 240 245 255 257
225 219 213 211 209 206 196 205 194 199 173 208 222 249 218 265 248 248 254 260 249 256 293 279 266 257 246 248 250 248 244 267 241 234 253 235 244 242
189 235 186 231 223 244 217 163 238 257 258 258 271 257 260 240 244 240 242 258 249 277 259 276 271 264 258 257 253 260 254 219 226 233 230 234 229 232
232 181 222 231 196 203 170 226 204 261 188 258 253 229 241 254 232 252 225 250 248 273 256 244 239 238 238 230 226 216 218 229 225 231 228 227 225 226
249 240 161 172 177 161 268 229 242 233 281 239 230 242 245 231 253 225 238 240 251 267 259 248 240 231 229 219 222 220 225 235 227 222 220 223 217 220
246 224 237 252 254 249 249 253 266 293 252 267 247 256 227 239 250 241 232 249 250 268 257 253 243 237 230 231 217 216 208 225 225 220 228 229 218 214
272 247 262 293 235 232 267 242 197 194 262 250 254 225 245 246 233 237 238 232 240 244 252 251 250 243 240 234 228 229 226 228 230 220 219 221 222 218
275 273 308 298 304 271 259 312 261 259 250 251 241 236 247 229 237 229 237 244 243 237 244 246 249 238 237 248 242 218 217 236 242 223 220 225 223 224
245 248 257 290 303 298 275 277 249 250 248 235 229 247 243 235 233 230 235 238 235 235 253 252 244 246 233 244 263 249 217 233 241 223 219 227 226 227
292 305 296 264 289 282 270 263 246 242 243 234 227 235 232 230 241 239 232 246 225 236 259 255 244 246 244 244 247 253 220 221 228 223 224 226 228 238
284 286 262 259 262 249 250 247 239 241 244 244 237 237 227 228 238 227 245 241 236 239 255 239 246 249 245 236 242 246 249 231 225 225 227 229 239 251
275 263 261 261 262 239 237 243 240 254 239 233 231 225 232 237 228 228 244 238 233 263 249 263 262 247 251 240 241 256 256 242 228 227 229 240 254 269
258 259 243 245 258 245 245 234 251 240 228 233 227 228 234 233 236 245 233 232 256 243 267 252 240 230 222 241 242 257 234 229 226 230 243 262 307 326
275 263 256 260 256 247 242 242 227 236 226 232 231 235 231 244 245 229 235 255 248 263 243 234 241 249 282 275 272 270 271 241 262 263 294 349 375 298
254 246 253 242 238 234 229 234 233 223 236 234 236 233 232 244 229 237 255 251 254 235 233 230 232 257 273 268 270 263 256 260 290 321 386 362 353 363
251 247 235 243 233 229 228 237 242 242 237 236 241 247 245 236 239 256 252 248 246 223 226 224 227 227 229 234 240 262 291 305 316 332 381 350 379 364
234 238 228 228 231 236 243 231 237 239 251 253 230 229 238 254 251 254 256 226 223 217 224 232 245 252 252 256 264 293 311 305 329 362 378 358 374 345
260 249 248 246 251 252 252 252 251 240 232 240 240 243 252 252 254 265 226 215 225 229 233 249 263 259 258 272 288 301 305 333 357 364 330 362 376 343
242 243 246 245 243 240 238 238 237 238 243 253 250 252 257 262 263 220 221 229 230 236 254 262 258 263 281 294 301 289 326 358 365 362 341 378 334 301
240 236 236 241 247 252 255 256 252 251 253 256 255 256 256 230 221 226 228 234 244 253 263 266 269 287 292 304 306 322 356 335 346 377 386 400 330 286
250 252 252 254 255 258 259 260 253 247 239 237 230 225 225 225 229 238 242 251 269 275 274 279 287 292 302 309 328 367 328 409 451 433 382 342 307 287

GFSNE_2pvu_pres_069.txt.gz
Presure
188 191 203 199 199 198 195 177 188 179 178 184 165 215 220 217 225 216 234 240 284 263 193 261 247 272 289 293 282 260 294 243 259 264 262 256 257 273
178 224 194 181 181 151 194 197 193 192 164 192 190 184 212 149 242 231 244 263 262 217 264 227 254 268 285 279 281 262 279 253 256 256 250 254 281 246
180 181 176 176 178 167 176 178 185 188 201 189 246 193 169 258 202 266 233 197 220 252 247 257 261 249 280 267 280 268 260 251 248 249 254 265 236 249
173 175 179 179 181 185 190 179 191 197 203 209 163 272 243 251 253 261 266 270 196 245 253 224 264 260 279 266 252 243 243 258 234 234 225 225 237 235
182 184 194 189 193 174 208 178 187 207 231 240 242 235 225 215 174 229 272 226 239 242 256 254 246 251 266 272 257 243 237 230 220 217 217 232 225 232
203 205 187 204 123 209 212 170 227 177 242 243 250 243 272 265 267 248 222 250 244 243 238 244 241 249 245 263 259 253 243 236 229 221 218 219 225 222
209 214 214 214 213 198 213 230 241 150 266 249 261 240 245 218 259 257 242 228 252 231 228 235 236 247 246 245 254 263 255 246 234 233 221 216 214 224
230 232 231 238 240 240 265 257 259 236 214 258 271 182 275 274 259 172 246 235 232 238 261 235 235 233 246 236 242 254 248 245 242 248 238 233 229 226
266 256 262 264 275 259 266 245 242 239 231 267 313 310 289 252 256 241 240 229 239 227 237 233 246 229 244 232 241 266 250 242 246 233 256 258 218 219
269 277 331 309 307 314 261 293 244 264 250 242 243 261 263 252 239 245 229 236 238 230 238 227 244 224 244 241 243 259 241 244 251 250 249 257 256 234
305 300 294 297 288 301 330 318 320 305 294 285 277 258 250 244 237 232 235 232 239 237 232 239 229 233 245 233 264 254 254 244 251 247 240 243 247 251
295 292 300 286 283 315 295 275 291 287 278 265 263 253 237 236 239 241 225 217 235 231 229 236 240 248 240 239 254 261 257 254 245 241 242 244 253 263
327 305 293 293 285 276 287 281 274 256 254 243 250 241 239 226 232 243 232 237 226 224 233 233 239 245 237 258 262 258 251 243 226 245 262 274 274 271
286 285 282 281 287 268 270 270 260 251 248 250 232 231 243 230 247 234 238 226 229 232 236 233 250 235 251 254 252 239 231 236 246 271 272 270 271 269
278 284 271 268 261 252 257 258 248 243 230 242 248 229 239 243 243 231 236 226 236 235 243 250 237 246 251 255 257 228 226 222 226 232 232 235 238 243
272 274 279 270 272 256 250 238 254 253 246 235 243 247 243 232 235 237 236 234 234 247 247 231 247 250 263 272 227 225 219 229 240 255 259 263 269 287
270 262 253 271 264 259 256 246 249 250 255 238 241 231 227 226 234 242 236 244 254 233 237 249 250 255 273 217 216 226 232 238 261 260 256 268 294 311
263 257 259 257 252 259 255 249 245 244 235 230 227 236 238 239 243 252 246 236 242 243 256 244 250 266 220 217 227 230 237 257 262 264 281 292 303 310
243 243 245 246 246 246 250 240 236 242 242 246 250 249 251 250 241 239 239 244 252 248 257 259 257 222 218 227 230 244 266 273 272 287 295 310 310 340
259 263 256 253 252 257 262 261 256 250 249 249 244 240 237 239 248 251 251 252 256 256 252 241 223 224 226 236 250 276 279 279 288 294 309 310 356 360
241 243 241 240 241 238 239 241 241 239 237 243 246 250 253 252 252 254 254 250 240 229 224 226 228 237 250 273 280 281 283 290 296 306 307 351 348 337
239 240 240 240 248 256 254 253 252 252 253 257 256 253 249 243 241 237 235 229 228 229 234 248 268 280 284 284 284 279 285 292 306 304 339 368 327 350
254 252 249 250 251 254 249 240 240 240 239 242 244 244 248 245 248 254 270 275 273 269 266 267 280 275 264 282 283 286 291 301 304 333 373 351 388 314

GFSNE_2pvu_pres_072.txt.gz
Presure
161 164 171 167 163 183 171 165 189 170 167 173 104 174 143 180 173 141 197 151 202 216 220 228 257 233 255 218 248 266 277 269 280 264 276 265 255 257
159 166 180 176 195 169 162 162 166 173 176 170 180 175 175 190 159 184 181 180 212 227 244 269 257 226 205 209 250 246 273 271 253 258 264 256 252 253
222 222 196 190 211 185 176 174 176 176 168 181 131 187 155 152 205 202 157 158 257 253 237 220 225 264 251 240 234 251 260 272 264 250 239 241 245 240
231 225 220 224 228 232 217 218 187 169 190 203 193 196 204 200 214 206 218 234 241 259 236 246 258 231 237 254 245 250 242 256 263 258 248 236 228 226
216 208 206 211 212 220 226 225 223 210 215 216 212 212 217 214 215 195 247 246 261 233 263 278 258 229 242 235 233 243 241 241 249 263 260 247 233 226
233 229 232 215 219 225 219 218 216 214 211 218 220 218 218 226 240 249 265 258 248 278 236 234 225 241 239 235 231 237 230 234 245 242 261 253 248 236
229 230 229 231 231 229 233 232 231 229 213 167 230 235 256 265 263 254 255 248 253 261 274 252 246 238 244 233 237 235 226 239 254 244 266 257 247 246
237 240 245 244 245 251 250 253 263 261 264 263 252 250 251 253 254 266 238 241 289 258 252 249 234 243 234 235 237 231 238 234 255 246 266 261 252 244
162 247 252 258 267 280 289 280 279 301 303 287 286 259 251 274 250 264 295 267 260 257 245 236 241 234 233 228 235 222 238 245 253 241 259 260 252 246
286 303 359 337 300 278 298 315 282 294 293 282 320 301 319 312 289 292 269 256 253 246 243 235 232 239 237 238 227 226 232 239 249 235 260 262 267 259
351 354 371 370 375 284 272 293 291 290 291 289 316 276 303 302 284 277 269 255 247 239 231 234 229 228 237 236 230 230 239 237 245 244 256 263 257 253
339 367 300 341 308 354 317 316 300 283 280 278 297 268 261 281 269 255 256 239 233 237 238 223 227 236 241 227 230 230 251 248 237 257 261 253 242 232
335 317 314 308 311 315 315 317 327 290 268 280 270 288 270 249 246 247 236 246 236 226 235 227 244 233 230 226 233 233 252 236 250 255 258 240 230 229
307 297 291 294 292 292 297 279 277 290 289 273 269 259 249 242 244 239 235 227 235 238 237 241 232 223 237 233 229 246 235 242 256 267 275 233 223 219
305 295 295 285 274 278 277 276 263 269 263 266 260 256 248 245 233 230 234 245 244 241 226 225 216 241 229 230 249 231 241 254 261 274 250 217 219 230
281 278 283 276 266 264 261 260 261 258 255 252 251 242 243 247 249 247 251 245 244 229 228 231 225 236 244 244 239 241 253 252 263 256 219 219 229 232
272 283 273 274 268 259 260 255 263 259 252 255 253 247 246 243 235 236 238 235 227 232 232 240 246 245 236 238 248 248 256 261 256 229 220 227 234 247
263 262 261 260 261 260 253 257 250 251 250 251 253 248 236 239 227 230 241 244 243 241 248 242 233 240 251 248 250 253 253 251 226 225 229 238 263 287
251 255 253 250 253 252 250 249 245 244 239 237 239 253 254 253 252 249 246 243 239 240 242 249 249 248 249 251 241 240 228 226 228 236 257 280 282 283
247 249 255 253 247 249 249 250 250 249 246 244 240 239 241 243 244 246 245 245 251 253 258 260 257 249 237 233 228 232 235 241 265 279 282 263 281 281
244 245 244 238 237 240 242 242 241 241 243 249 253 250 248 248 248 248 247 241 235 237 238 238 240 241 243 246 256 266 265 268 277 277 265 280 283 289
242 243 243 242 241 241 242 249 249 248 245 239 238 238 237 238 239 243 243 240 262 258 266 268 266 269 261 262 267 270 274 282 278 268 274 288 294 284
252 250 249 250 253 254 246 245 243 236 237 238 246 254 276 273 273 295 285 288 286 287 281 267 281 276 269 276 272 276 279 277 275 278 288 299 294 301

GFSNE_2pvu_pres_075.txt.gz
Presure
201 208 187 201 201 198 199 199 204 200 211 212 216 191 225 222 219 179 204 198 194 210 186 189 127 216 215 260 244 278 229 256 240 254 253 277 257 253
194 183 191 184 198 187 192 194 215 216 194 191 202 217 178 190 217 215 183 213 224 218 208 215 216 220 182 252 226 227 258 253 250 247 249 256 267 255
185 184 184 185 190 193 196 192 184 218 193 221 222 208 194 203 133 216 222 221 217 180 216 217 220 238 252 245 270 268 233 250 229 238 243 259 255 264
184 173 192 177 172 181 181 177 183 188 191 191 233 227 203 211 214 219 215 217 218 223 221 227 243 245 237 274 255 253 248 244 230 240 241 243 258 252
188 188 182 183 179 180 170 188 192 194 173 231 234 225 221 227 227 225 207 226 229 237 245 262 271 262 259 239 240 256 239 246 245 240 242 237 243 260
177 176 171 181 184 190 197 205 214 226 230 234 232 234 235 235 239 215 251 283 251 271 271 266 242 267 243 276 246 246 243 239 236 234 243 233 247 262
219 149 235 225 193 217 224 231 237 243 240 241 246 257 261 263 271 301 298 288 277 264 279 247 270 246 251 262 251 241 234 240 225 238 239 229 234 256
249 243 225 235 237 240 242 248 249 249 261 267 308 289 320 287 329 267 287 316 302 286 306 305 303 270 266 253 241 236 235 229 241 236 229 226 238 248
236 241 243 249 255 258 267 276 291 278 295 266 274 312 280 311 296 279 290 309 312 286 307 294 285 272 254 242 236 239 228 237 230 235 228 230 237 248
279 281 288 278 277 284 271 278 289 324 329 274 320 287 278 287 290 285 282 293 307 300 285 281 262 260 235 245 236 227 237 219 238 233 221 229 230 241
245 256 282 323 335 340 258 290 326 339 338 321 269 291 274 275 277 270 266 293 287 267 278 262 257 246 243 234 235 229 233 233 247 221 223 235 234 251
303 304 248 333 322 355 340 325 329 339 332 304 325 298 290 272 271 265 282 247 276 271 256 254 245 235 239 236 225 228 238 237 224 223 236 235 240 243
289 281 291 318 318 310 307 306 310 313 311 305 327 292 273 267 271 274 273 265 258 246 247 246 230 237 239 236 233 227 225 224 216 238 230 239 236 240
269 271 295 304 302 298 294 289 285 292 288 287 282 281 289 292 278 269 262 249 244 240 240 241 238 219 228 240 241 238 221 231 220 236 244 250 239 241
262 268 266 286 295 299 298 287 273 265 272 262 261 261 265 257 253 262 252 251 251 229 227 225 226 236 229 226 225 226 228 227 240 247 244 236 242 250
261 263 289 282 279 286 280 275 265 268 265 261 253 254 244 250 244 246 244 241 237 237 238 235 233 239 235 234 229 236 242 240 247 232 238 251 250 257
261 256 277 274 275 272 264 269 266 262 255 258 251 253 255 248 245 244 248 254 250 245 238 240 225 228 235 242 242 246 247 237 238 244 247 252 257 252
260 262 279 274 263 261 263 253 255 256 260 245 249 245 243 249 241 237 235 233 238 245 246 248 250 252 249 246 235 238 241 247 255 259 257 246 237 232
262 252 259 265 257 252 250 247 251 254 254 260 261 259 256 254 253 250 246 243 234 235 238 241 243 243 243 245 251 255 259 253 243 238 237 239 247 260
257 250 256 255 254 250 247 248 250 246 240 239 243 243 241 241 244 249 250 248 248 248 248 249 250 249 248 246 241 242 246 249 249 248 254 271 264 256
256 253 249 247 248 246 243 241 240 242 242 242 242 246 252 247 242 240 241 240 239 240 244 252 262 266 269 269 273 273 273 271 263 273 280 275 267 270
258 253 249 250 249 248 245 245 250 248 245 251 254 245 240 239 237 237 238 252 263 265 279 293 282 297 332 351 351 345 278 278 279 273 269 265 275 281
263 258 252 251 251 253 254 251 254 258 251 243 240 241 237 239 252 255 259 269 279 298 282 284 309 308 345 350 360 375 363 330 314 307 293 283 281 276

GFSNE_2pvu_pres_081.txt.gz
Presure
167 162 175 168 182 179 207 219 203 189 212 157 167 194 185 205 206 209 248 216 226 199 205 191 193 232 221 220 226 236 230 142 240 243 248 264 260 234
191 173 152 182 197 171 191 174 209 187 168 132 191 190 204 190 183 227 174 201 228 228 187 196 212 208 218 234 236 239 245 252 250 245 247 264 267 259
182 152 167 176 184 155 191 180 189 209 200 192 198 186 203 226 206 209 216 227 242 179 193 232 233 235 239 241 245 253 257 257 289 267 265 247 245 263
222 195 184 213 221 193 185 186 194 205 199 205 218 190 217 207 237 232 232 234 228 245 248 242 246 251 249 251 261 270 276 258 282 271 260 231 276 261
159 204 175 193 207 184 195 174 202 192 218 196 216 221 243 222 236 239 253 249 258 258 270 248 271 275 276 281 306 263 298 254 252 240 268 247 254 245
197 197 189 196 202 175 188 229 194 217 235 189 227 238 240 252 275 275 263 272 274 262 292 270 270 269 285 300 281 231 304 249 280 274 272 265 264 252
189 178 167 202 189 239 210 230 217 232 249 235 241 250 280 297 299 292 282 306 285 317 276 282 275 272 256 245 221 304 304 289 272 260 271 263 241 252
200 191 237 225 229 220 214 239 178 249 250 300 279 288 330 332 273 340 322 357 366 330 318 334 307 273 261 282 296 299 308 295 298 279 266 261 255 248
212 202 203 229 222 220 233 281 211 297 290 294 324 275 303 325 340 377 358 357 326 319 299 311 311 300 284 270 279 270 278 286 287 276 267 256 248 237
225 224 228 234 261 266 290 296 314 296 255 238 263 262 308 329 336 330 343 348 329 310 294 307 294 293 263 254 278 277 292 284 276 264 257 251 240 235
310 275 283 296 303 289 301 266 225 285 304 295 294 304 339 320 287 321 331 324 298 290 300 276 274 271 258 258 272 280 269 271 262 253 243 240 238 237
301 257 288 275 240 227 242 286 309 303 290 290 289 292 310 305 309 314 324 326 310 318 288 277 284 276 256 287 278 281 267 259 259 244 240 240 237 221
285 269 294 252 302 268 294 300 296 293 280 282 279 290 299 302 293 283 309 308 297 289 274 284 266 276 263 252 252 254 263 267 249 249 240 240 239 238
257 287 307 306 294 293 287 287 290 290 276 266 277 301 306 284 278 274 274 270 287 286 293 293 274 267 262 261 238 233 241 236 231 227 218 221 220 219
277 270 298 287 284 275 275 263 261 267 275 271 269 287 284 278 269 266 268 262 260 261 255 252 249 249 243 241 244 240 241 241 239 235 228 227 229 228
302 289 280 269 274 258 274 285 273 273 269 267 268 282 273 275 268 261 268 265 254 256 240 243 243 245 245 232 237 243 240 238 241 231 231 233 233 238
281 277 267 257 261 261 285 298 284 276 266 265 265 277 273 278 275 266 264 261 255 253 253 251 249 247 242 242 242 247 242 237 235 236 237 240 243 243
273 267 255 258 254 282 320 305 289 274 264 264 269 268 270 261 255 250 255 254 252 250 251 252 249 248 246 247 245 242 241 238 237 236 236 237 240 244
260 260 255 250 258 275 297 286 274 267 263 262 264 262 252 263 261 257 252 251 238 234 237 243 239 235 243 249 248 248 248 246 244 240 238 238 241 248
250 252 248 247 272 267 284 273 273 265 262 259 254 254 241 246 247 242 239 237 239 242 247 254 250 244 242 241 239 241 241 247 255 258 257 261 268 276
240 243 246 251 273 266 267 271 271 266 263 259 254 249 242 245 250 253 257 258 254 253 247 243 241 237 237 242 241 253 263 264 275 296 310 312 307 305
240 246 249 267 266 261 257 269 264 261 261 254 253 252 248 255 263 258 258 251 247 243 242 239 237 249 241 255 257 257 269 332 321 293 308 350 329 314
242 249 264 270 262 254 256 247 260 263 264 254 257 259 258 250 248 249 249 246 244 236 238 242 246 249 257 250 259 275 323 301 292 308 353 292 292 286

GFSNE_2pvu_pres_084.txt.gz
Presure
178 204 186 200 214 188 190 198 157 168 184 198 176 202 197 196 199 180 197 198 194 203 196 146 214 224 221 236 249 254 247 239 236 236 240 248 249 245
177 158 168 184 171 179 178 182 169 183 159 212 177 179 209 202 189 202 205 208 207 201 218 216 237 254 261 260 248 253 250 248 240 240 246 236 253 259
167 187 186 167 181 181 189 185 193 154 212 195 177 190 199 168 186 205 203 194 214 223 235 232 272 285 276 269 266 262 267 260 258 258 258 254 266 272
186 193 186 206 177 145 167 157 199 207 189 211 162 203 168 212 161 207 200 216 232 232 297 294 297 272 303 308 311 288 316 266 265 283 275 263 243 259
189 143 178 167 189 181 146 196 181 204 203 195 183 207 195 209 215 200 237 234 273 286 303 288 298 306 230 266 292 244 271 280 270 258 305 285 271 263
192 178 171 173 163 160 192 197 201 209 193 176 212 204 205 189 199 246 244 329 318 345 240 291 334 303 345 323 303 300 286 272 275 243 241 283 228 239
187 199 193 179 196 205 201 194 195 198 198 198 213 212 220 244 236 290 317 333 268 252 343 287 352 348 342 326 325 322 283 289 294 283 287 243 260 277
197 162 196 203 202 187 164 192 216 197 209 211 208 228 240 249 279 289 265 248 252 334 357 355 401 341 326 328 316 307 290 281 266 277 285 292 280 265
202 197 213 209 203 200 199 201 201 210 208 226 217 223 314 262 276 291 296 313 343 331 334 344 322 308 306 300 297 301 283 269 269 289 291 279 275 269
208 203 200 208 214 196 206 213 215 226 216 232 263 277 292 256 283 272 309 297 303 322 360 311 307 306 284 293 284 274 270 257 256 277 272 242 270 262
193 216 213 213 181 205 200 223 228 216 248 277 260 272 294 255 293 297 292 313 312 318 305 304 293 291 290 275 274 273 261 251 257 281 245 266 268 264
205 206 204 209 220 197 228 218 279 274 254 305 277 280 297 296 295 286 313 304 297 308 317 303 298 288 284 274 267 274 263 248 287 265 265 257 257 243
223 218 217 202 217 224 272 309 294 296 294 319 259 299 293 284 277 285 280 286 283 282 322 300 304 288 276 277 281 272 271 274 252 275 257 267 241 251
212 219 216 258 292 262 276 269 288 299 304 293 288 284 273 266 269 272 297 283 275 277 267 260 288 280 278 259 251 253 250 249 237 244 259 260 260 244
280 276 301 291 267 280 288 285 284 281 289 280 280 273 287 273 269 276 280 268 274 264 265 261 250 258 241 265 267 257 252 254 252 248 238 240 218 229
281 265 275 275 253 278 290 276 303 286 277 273 266 282 284 276 271 271 270 267 263 260 259 257 258 256 246 239 240 240 239 235 232 231 233 237 232 232
275 276 271 275 268 265 292 295 285 272 268 266 291 295 286 273 269 264 274 270 275 266 260 259 255 246 246 247 248 251 248 243 239 237 238 243 248 247
267 266 266 272 280 285 292 280 269 266 261 260 319 298 283 273 265 267 262 251 256 251 254 254 251 253 250 249 247 245 247 248 243 241 241 240 240 241
263 266 273 263 267 288 274 266 260 257 252 301 295 277 271 264 261 262 257 253 257 260 250 249 246 239 239 240 245 239 240 248 250 247 246 244 244 247
259 263 245 253 265 272 260 254 250 247 248 276 279 271 267 262 255 256 253 247 240 247 246 242 241 245 247 255 261 256 249 247 246 239 245 241 248 254
258 255 261 266 264 250 252 249 243 242 247 270 264 267 262 259 255 251 252 244 241 244 248 260 263 259 255 251 245 246 242 241 248 244 254 263 260 276
256 254 257 266 253 249 243 244 237 242 251 268 257 270 257 255 255 252 248 246 244 250 264 257 247 248 243 245 240 240 247 248 256 260 254 266 277 319
264 264 265 259 248 245 240 239 238 242 255 265 256 265 256 263 260 256 251 254 260 256 250 246 248 243 240 241 239 245 246 257 255 251 263 274 307 315

GFSNE_2pvu_pres_087.txt.gz
Presure
160 161 183 166 173 178 148 172 187 198 188 206 211 163 190 210 179 224 162 146 161 204 193 194 175 201 200 204 251 307 248 277 265 268 220 262 252 261
191 165 188 150 182 182 201 169 177 187 190 166 189 193 197 164 203 191 195 185 193 191 193 196 142 217 217 244 329 264 268 290 228 270 280 284 261 254
168 155 175 189 190 155 190 206 170 195 220 185 177 196 180 175 202 196 189 201 188 195 204 207 203 225 232 259 268 229 258 265 279 291 257 241 254 258
174 192 178 213 177 180 205 160 190 186 186 207 168 152 146 191 192 176 206 203 181 212 215 211 217 244 218 357 265 323 333 329 312 293 279 281 233 282
194 179 172 176 160 187 156 191 163 173 152 172 170 217 149 196 213 212 195 203 215 215 213 214 226 268 237 329 332 331 352 316 315 297 300 271 268 267
196 180 175 212 161 172 184 188 164 179 195 178 204 192 193 202 198 217 215 212 221 213 199 219 306 257 291 337 374 352 347 336 333 302 297 289 277 255
192 182 195 161 178 172 193 152 182 195 180 188 170 186 208 205 226 221 223 215 226 223 227 226 307 299 349 313 356 361 327 337 314 324 285 277 274 265
191 192 191 191 192 201 184 198 172 191 178 163 200 191 218 214 217 215 197 224 197 229 254 230 318 336 341 385 340 328 322 316 300 309 303 275 283 270
169 197 196 189 174 198 189 189 193 185 194 202 191 192 212 223 197 236 210 215 224 268 252 310 329 325 360 317 319 316 309 305 300 292 275 270 256 259
204 180 177 195 191 177 184 200 198 176 195 200 181 218 224 208 226 229 229 224 232 239 305 299 318 327 323 313 311 298 296 289 287 279 272 267 267 273
197 196 195 192 199 202 202 176 177 178 225 216 229 209 215 241 244 227 311 304 305 301 282 286 311 304 320 299 284 302 286 281 278 273 267 253 256 270
185 212 205 202 204 221 176 216 213 219 208 211 230 197 220 208 227 275 295 298 291 291 279 310 300 298 305 286 289 295 283 275 266 266 257 250 255 275
215 209 215 223 218 204 220 201 225 204 217 225 214 231 228 196 224 281 303 291 285 277 270 309 289 281 291 305 292 283 273 276 281 268 247 250 276 269
201 203 219 203 206 205 219 212 205 211 213 203 224 239 245 253 273 297 288 285 274 279 276 297 279 269 270 261 267 271 269 265 263 259 252 243 236 240
215 237 221 228 228 227 228 224 238 204 216 240 298 295 289 279 297 284 282 271 292 278 276 283 276 275 265 262 258 252 241 265 265 255 252 251 239 242
239 235 235 239 262 281 258 268 280 276 271 276 287 286 280 299 283 283 274 273 281 273 271 278 270 269 266 267 266 257 254 247 246 249 242 240 248 252
291 299 280 278 284 276 272 266 267 262 260 267 254 297 300 286 277 272 264 298 283 272 273 279 269 268 252 261 259 253 250 254 253 251 253 250 246 247
290 290 289 277 270 262 270 261 288 268 263 271 275 295 284 274 266 260 308 289 275 266 271 268 253 256 250 258 252 250 252 244 244 243 242 246 246 246
291 288 272 280 275 275 294 278 267 273 266 267 284 278 270 262 256 250 286 274 261 267 262 260 257 257 252 248 251 246 247 238 239 240 241 246 247 249
284 278 284 274 277 266 253 265 261 270 264 258 273 269 260 254 249 280 266 266 262 259 258 253 255 245 247 248 246 245 245 250 252 252 256 253 241 243
289 277 272 273 269 267 264 258 257 258 254 251 264 256 252 247 241 273 262 262 259 258 253 249 245 248 243 246 251 269 264 255 252 251 242 242 238 244
299 278 277 267 267 261 257 256 256 254 262 257 250 245 246 238 240 261 262 265 257 255 254 257 248 250 247 249 258 251 245 250 250 242 245 242 243 247
305 308 275 269 266 257 253 254 255 253 252 256 242 243 243 235 236 259 254 261 259 263 259 256 252 254 258 256 247 247 249 247 247 245 246 251 252 259

GFSNE_2pvu_pres_090.txt.gz
Presure
183 181 185 194 170 195 194 163 187 175 153 187 139 210 181 203 204 180 196 161 173 195 169 184 160 192 189 190 201 200 239 224 335 265 321 303 275 294
184 190 168 166 177 181 144 170 201 193 219 193 170 168 191 223 173 213 191 177 208 178 216 180 200 154 181 200 190 245 245 240 228 288 280 292 296 291
198 197 189 179 185 193 203 193 194 198 151 209 159 200 217 188 202 204 195 197 168 215 141 190 189 163 198 212 233 218 227 242 242 314 325 349 321 285
201 202 176 172 190 207 209 193 190 200 178 192 191 178 181 199 216 201 186 167 203 184 183 170 203 194 207 209 237 209 324 269 344 343 349 320 322 309
170 200 200 209 175 175 202 188 190 200 168 197 152 201 211 162 159 169 175 197 204 183 210 201 202 208 231 241 249 244 228 361 350 379 355 347 303 309
196 202 203 215 212 197 194 201 190 177 175 147 187 181 197 199 196 176 177 197 191 199 200 198 196 198 240 238 236 312 243 350 355 367 347 342 320 321
191 174 179 205 197 151 177 204 171 146 177 196 190 197 186 172 182 206 186 197 195 184 203 169 183 229 236 254 288 248 340 373 412 334 336 328 326 320
162 185 206 201 208 155 203 197 204 207 187 163 201 198 172 209 187 190 213 189 204 173 205 216 218 239 247 241 245 327 354 329 335 333 322 317 317 315
155 215 181 181 161 208 199 182 186 190 182 179 171 198 200 180 189 187 205 197 208 209 190 205 224 242 241 309 277 319 328 315 316 304 309 310 301 299
195 202 201 212 196 197 198 199 194 194 190 192 184 185 184 201 208 192 189 205 207 209 199 225 240 231 274 261 304 306 320 316 313 299 296 300 294 296
209 204 226 206 205 194 211 210 185 189 190 212 203 197 186 192 203 184 221 205 185 204 225 198 196 276 245 284 311 299 310 297 304 296 284 290 281 280
195 186 195 218 183 184 178 177 179 179 184 207 196 196 211 209 213 213 209 220 213 222 234 215 244 291 296 282 297 287 319 302 305 279 274 277 277 272
225 203 202 195 191 193 189 196 197 193 199 200 185 187 210 183 216 215 210 262 197 201 211 300 296 281 289 277 286 284 294 331 299 272 266 268 267 264
224 204 211 210 214 204 204 218 210 200 203 215 214 214 223 211 222 206 236 198 218 221 299 262 288 281 283 277 283 281 269 267 287 280 279 276 273 261
232 213 215 220 209 231 215 224 220 205 211 208 191 203 222 180 225 196 242 299 297 266 300 287 274 287 276 274 280 277 276 266 263 257 283 244 266 265
222 235 218 220 213 217 221 230 239 245 245 262 260 294 254 268 278 295 286 288 291 301 284 271 268 279 276 271 278 280 266 270 266 263 263 255 268 260
278 289 301 262 243 239 242 284 283 284 296 274 284 289 287 276 278 274 275 275 295 285 272 265 290 279 274 273 282 273 254 254 263 256 255 257 253 251
254 282 257 276 279 277 261 260 263 290 287 285 283 275 276 266 278 268 274 283 280 268 261 268 279 273 267 271 266 258 252 253 255 250 253 255 247 246
257 257 257 264 265 286 265 264 290 296 284 269 269 272 273 279 266 272 265 269 268 259 252 275 271 265 269 260 261 257 251 243 251 249 248 247 243 242
310 280 273 266 270 274 263 260 292 286 272 274 272 283 269 264 265 261 257 262 256 249 248 269 265 264 265 256 255 251 248 243 241 242 246 249 254 257
328 305 295 280 275 270 267 267 265 287 275 277 276 264 255 260 249 250 248 253 243 243 240 268 262 258 255 255 250 250 242 244 246 242 248 259 248 246
339 310 300 299 283 279 288 286 269 279 282 267 258 260 254 255 250 255 255 249 239 239 233 245 260 261 257 245 257 259 251 247 250 251 254 247 241 245
327 327 313 305 296 274 284 286 275 269 265 265 258 250 248 253 248 255 251 240 238 237 230 247 257 258 261 253 253 254 254 259 256 243 242 240 243 247

GFSNE_2pvu_pres_093.txt.gz
Presure
178 170 188 199 167 163 184 184 191 171 149 196 151 182 203 169 159 199 187 216 171 171 199 203 180 194 137 182 182 186 165 139 190 197 198 280 275 309
187 176 189 189 167 186 184 189 177 206 196 194 187 168 190 207 219 140 221 188 201 202 201 198 178 197 190 212 187 194 194 189 193 217 235 243 347 342
169 195 171 189 181 183 195 188 204 188 175 175 210 207 200 185 208 205 174 188 189 199 198 174 194 204 182 189 177 182 180 194 215 222 238 275 321 367
163 170 151 160 189 182 179 205 198 193 190 195 200 201 166 151 230 179 210 211 202 200 174 189 181 186 194 198 140 160 200 182 243 222 205 357 358 371
185 154 200 191 189 191 191 184 211 184 192 190 185 200 197 185 213 173 210 203 205 195 200 196 200 202 188 192 194 195 204 227 203 222 231 321 380 375
193 192 185 191 189 191 209 193 177 183 192 206 196 207 190 150 171 180 213 199 192 174 198 146 197 186 197 191 195 195 217 218 232 230 332 358 390 356
187 199 172 165 194 170 169 204 220 197 159 146 149 164 201 185 203 151 158 143 191 203 189 188 193 197 192 191 194 215 208 213 222 268 248 345 344 349
225 216 187 207 224 205 217 185 183 186 160 162 209 202 204 164 205 185 205 200 201 207 202 217 181 204 199 208 204 218 217 207 255 317 338 333 326 334
192 191 192 193 185 196 190 179 195 194 217 197 192 202 207 179 196 192 187 183 198 194 205 211 187 205 188 216 202 217 209 245 264 285 334 316 311 314
204 209 207 181 196 193 197 198 187 197 213 202 203 175 183 191 193 197 203 196 196 203 200 202 201 214 202 194 219 214 254 304 221 311 320 322 302 309
194 215 190 191 189 196 200 185 203 221 214 198 200 195 184 182 192 199 188 192 194 187 199 202 207 199 211 223 235 256 274 287 301 303 310 313 302 298
215 222 204 211 201 210 223 212 218 206 180 206 192 188 197 203 208 204 210 203 196 202 201 208 203 211 221 273 252 281 271 288 283 298 308 304 296 291
198 219 223 218 197 206 211 195 192 201 210 212 189 200 202 202 198 186 187 185 205 207 205 198 201 214 265 274 296 266 282 292 290 288 283 309 281 283
232 224 206 203 204 213 202 204 200 208 205 215 200 194 195 198 191 200 202 198 198 217 202 191 205 259 298 295 268 286 280 279 278 289 275 272 279 286
222 236 216 225 219 223 205 216 218 214 211 210 202 205 200 202 202 203 203 199 194 250 242 200 289 315 293 284 285 275 280 274 270 271 280 273 267 293
244 241 234 230 234 230 224 205 211 214 214 217 204 213 189 204 205 211 231 284 304 276 243 293 304 286 281 285 275 270 272 273 270 271 274 270 274 267
266 285 274 267 262 262 270 271 263 240 274 273 274 291 233 223 248 275 261 255 267 284 282 277 281 277 286 272 266 285 276 270 268 284 273 262 268 264
252 334 278 277 264 256 260 257 272 279 279 275 261 259 271 265 234 254 252 262 282 269 273 280 274 274 268 264 291 275 273 264 266 264 258 256 261 255
347 339 340 249 238 232 223 224 240 249 228 230 256 227 238 226 290 244 281 277 265 264 272 267 261 267 260 259 277 269 259 262 261 259 257 256 252 254
353 343 336 317 305 283 289 272 298 285 271 263 257 258 258 264 264 262 275 265 264 262 258 262 253 258 251 248 264 261 261 259 252 255 254 252 247 243
350 341 334 331 310 292 276 280 284 273 268 272 278 266 257 256 256 251 274 265 261 250 253 251 243 243 249 244 244 260 256 256 246 249 250 250 240 247
371 352 334 326 322 310 313 299 293 278 274 272 265 269 270 264 274 281 269 266 248 243 251 247 248 243 242 241 234 257 256 254 252 243 249 255 254 250
393 366 355 331 323 312 308 302 308 293 290 276 268 271 280 277 268 277 267 248 241 243 246 249 252 243 234 240 234 249 249 255 249 239 249 256 259 251

GFSNE_2pvu_pres_096.txt.gz
Presure
140 163 166 186 191 180 177 199 185 201 166 190 171 195 209 174 197 195 194 180 187 213 190 201 181 209 150 162 206 201 140 181 150 202 175 196 162 214
144 180 204 201 160 187 165 189 187 202 166 176 175 183 185 191 195 197 184 193 168 207 220 200 183 166 177 181 192 200 173 184 194 202 197 186 204 222
191 184 171 192 186 185 199 190 191 205 190 197 194 190 192 196 191 161 175 190 200 194 192 215 126 175 190 209 179 186 209 182 191 184 193 159 217 230
189 180 165 181 192 185 182 160 183 184 200 180 184 193 169 178 178 203 197 220 203 191 186 201 169 188 189 198 206 200 172 203 204 199 140 207 214 243
198 191 182 181 184 179 163 150 172 189 182 182 192 178 168 197 172 215 205 178 211 212 147 192 220 189 193 207 202 203 202 199 197 190 214 217 210 231
193 176 190 184 188 194 187 198 194 198 171 192 194 193 196 197 205 187 165 172 185 154 187 197 200 195 209 202 184 132 166 190 189 208 215 199 221 222
223 219 194 194 173 203 172 210 200 203 196 193 206 190 160 187 185 144 155 202 180 188 218 209 160 189 185 206 196 175 182 200 208 209 193 224 234 310
200 202 213 210 204 199 189 216 205 203 205 202 206 197 200 206 172 213 206 197 211 233 197 207 187 190 206 187 204 196 205 207 174 197 214 225 253 322
202 199 193 209 200 198 203 192 193 202 212 222 225 182 174 233 193 215 217 186 199 178 199 184 188 198 198 200 203 195 204 198 193 221 214 217 302 303
215 205 211 208 213 203 206 201 224 217 189 207 236 170 211 199 220 199 199 187 201 201 208 190 192 196 197 203 205 207 207 203 202 209 241 303 287 301
219 210 212 212 228 201 201 192 210 215 226 211 229 211 207 219 195 189 193 192 189 189 204 195 202 192 203 206 196 201 202 203 195 222 307 248 286 302
233 236 185 235 206 212 199 193 208 202 218 204 195 195 195 222 202 194 210 202 204 197 196 192 201 200 203 203 188 206 211 203 235 233 293 275 294 284
228 233 229 206 197 209 227 239 203 207 234 198 207 201 205 202 193 199 192 194 197 211 209 195 199 211 192 194 203 213 221 256 302 302 290 282 282 287
234 229 214 246 237 238 238 238 238 231 225 217 208 209 214 195 213 203 197 208 191 199 198 204 196 205 214 191 231 280 278 296 306 287 272 283 280 283
251 251 250 237 242 229 235 233 234 236 231 230 215 220 202 194 209 211 210 207 207 212 200 201 242 246 253 259 286 279 290 282 276 277 274 269 275 270
248 229 248 243 219 253 243 236 234 221 216 225 222 221 222 216 211 218 208 224 270 250 276 251 258 257 247 296 247 278 284 275 278 271 265 276 271 269
277 274 251 307 258 263 263 260 250 241 238 235 264 233 233 237 231 225 235 252 228 255 231 258 261 228 261 248 275 281 282 274 271 263 275 273 268 276
429 412 358 266 269 277 304 246 250 267 268 257 269 276 257 262 229 247 252 239 257 243 246 214 242 272 278 270 275 276 270 268 263 271 274 272 266 277
436 416 392 380 371 358 351 344 264 253 250 250 254 257 242 220 236 242 298 214 219 220 216 234 278 285 273 270 267 267 262 259 254 279 267 257 259 258
444 417 393 374 362 350 342 330 323 323 267 302 308 250 287 240 267 268 250 240 264 270 266 264 274 273 271 260 262 255 256 250 252 258 260 253 253 253
442 418 392 373 358 347 341 325 327 319 313 304 293 296 292 273 281 278 273 270 267 301 261 277 279 271 259 260 255 248 249 242 247 246 257 255 251 250
342 422 389 375 356 344 342 323 315 307 299 304 298 292 288 275 289 284 276 269 267 258 267 269 264 263 253 252 249 246 246 239 240 238 256 249 253 247
340 333 411 371 357 343 329 310 315 302 293 289 292 281 277 272 269 262 263 266 270 272 265 260 253 261 249 243 250 247 249 240 239 236 236 249 251 253